Weather History for PAGS - November, 2010

Change the Weather History Date:

Monday, November 29, 2010

  Actual Average Record
Temperature  
Mean Temperature 40 °F -  
Max Temperature 42 °F 37 °F 47 °F (1965)
Min Temperature 37 °F 24 °F -5 °F (1985)
Degree Days  
Heating Degree Days 26    
Moisture  
Dew Point 32 °F    
Average Humidity 72    
Maximum Humidity 93    
Minimum Humidity 61    
Precipitation  
Precipitation 0.00 in - - ()
Sea Level Pressure  
Sea Level Pressure 29.29 in    
Wind  
Wind Speed 12 mph (East)    
Max Wind Speed 25 mph    
Max Gust Speed 31 mph    
Visibility 10 miles    
Events      
Averages and records for this station are not official NWS values.
T = Trace of Precipitation, MM = Missing Value Source: NWS Daily Summary

Daily Weather History Graph

Daily Weather History Graph

Search for Another Location

Airport or City:

Trip Planner

Search our weather history database for the weather conditions in past years. The results will help you decide how hot, cold, wet, or windy it might be!

Date:

Astronomy

Nov. 29, 2010 Rise Set
Actual Time 8:22 AM AKST 3:19 PM AKST
Civil Twilight 7:32 AM AKST 4:09 PM AKST
Nautical Twilight 6:40 AM AKST 5:01 PM AKST
Astronomical Twilight 5:52 AM AKST 5:49 PM AKST
Moon 12:13 AM AKST (11/29) 12:38 PM AKST (11/29)
Length of Visible Light 8h 37m
Length of Day
6h 57m
Last Quarter, 38% of the Moon is Illuminated
Nov 29
Last Quarter
Dec 5
New
Dec 13
First Quarter
Dec 20
Full
Dec 27
Last Quarter

Hourly Weather History & Observations

Time (AKST) Temp. Windchill Dew Point Humidity Pressure Visibility Wind Dir Wind Speed Gust Speed Precip Events Conditions
12:16 AM 41.0 °F 30.7 °F 30.2 °F 65% 29.62 in 10.0 mi SE 25.3 mph 29.9 mph N/A   Overcast
12:36 AM 42.8 °F 34.5 °F 30.2 °F 61% 29.61 in 10.0 mi SE 18.4 mph 29.9 mph N/A   Overcast
12:56 AM 42.8 °F 34.0 °F 30.2 °F 61% 29.60 in 10.0 mi SE 20.7 mph 26.5 mph N/A   Overcast
1:16 AM 42.8 °F 34.0 °F 30.2 °F 61% 29.59 in 10.0 mi SE 20.7 mph 31.1 mph N/A   Overcast
1:36 AM 42.8 °F 35.1 °F 30.2 °F 61% 29.58 in 10.0 mi SE 16.1 mph 20.7 mph N/A   Overcast
1:56 AM 42.8 °F 34.8 °F 30.2 °F 61% 29.57 in 10.0 mi SE 17.3 mph 26.5 mph N/A   Overcast
2:16 AM 42.8 °F 36.6 °F 30.2 °F 61% 29.55 in 10.0 mi ESE 11.5 mph 21.9 mph N/A   Overcast
2:36 AM 42.8 °F 37.5 °F 30.2 °F 61% 29.53 in 10.0 mi ESE 9.2 mph 19.6 mph N/A   Overcast
2:56 AM 42.8 °F 38.6 °F 30.2 °F 61% 29.52 in 10.0 mi East 6.9 mph - N/A   Overcast
3:16 AM 42.8 °F 38.0 °F 30.2 °F 61% 29.50 in 10.0 mi ESE 8.1 mph - N/A   Overcast
3:36 AM 42.8 °F 37.5 °F 30.2 °F 61% 29.49 in 10.0 mi ESE 9.2 mph - N/A   Overcast
3:56 AM 42.8 °F 37.5 °F 30.2 °F 61% 29.47 in 10.0 mi ESE 9.2 mph 17.3 mph N/A   Overcast
4:16 AM 41.0 °F 35.2 °F 30.2 °F 65% 29.46 in 10.0 mi East 9.2 mph 16.1 mph N/A   Overcast
4:36 AM 41.0 °F 35.2 °F 30.2 °F 65% 29.44 in 10.0 mi ESE 9.2 mph 16.1 mph N/A   Overcast
4:56 AM 41.0 °F 35.8 °F 30.2 °F 65% 29.42 in 10.0 mi ENE 8.1 mph 24.2 mph N/A   Overcast
5:16 AM 41.0 °F 37.1 °F 30.2 °F 65% 29.40 in 10.0 mi ENE 5.8 mph - N/A   Overcast
5:36 AM 42.8 °F 38.6 °F 30.2 °F 61% 29.38 in 10.0 mi East 6.9 mph - N/A   Overcast
5:56 AM 42.8 °F 38.0 °F 30.2 °F 61% 29.37 in 10.0 mi ENE 8.1 mph - N/A   Overcast
6:16 AM 42.8 °F 40.1 °F 30.2 °F 61% 29.35 in 10.0 mi East 4.6 mph - N/A   Overcast
6:36 AM 42.8 °F 37.0 °F 30.2 °F 61% 29.34 in 10.0 mi East 10.4 mph 17.3 mph N/A   Overcast
6:56 AM 42.8 °F 38.6 °F 32.0 °F 66% 29.33 in 10.0 mi East 6.9 mph 18.4 mph N/A   Overcast
7:16 AM 42.8 °F 36.6 °F 32.0 °F 66% 29.31 in 10.0 mi East 11.5 mph 18.4 mph N/A   Overcast
7:36 AM 42.8 °F 37.5 °F 32.0 °F 66% 29.31 in 10.0 mi ESE 9.2 mph 18.4 mph N/A   Overcast
7:56 AM 41.0 °F 36.4 °F 32.0 °F 70% 29.30 in 10.0 mi East 6.9 mph 20.7 mph N/A   Overcast
8:16 AM 41.0 °F 35.8 °F 32.0 °F 70% 29.29 in 10.0 mi SE 8.1 mph 18.4 mph N/A   Overcast
8:36 AM 41.0 °F 35.8 °F 33.8 °F 76% 29.28 in 10.0 mi East 8.1 mph - N/A   Overcast
8:56 AM 41.0 °F 36.4 °F 33.8 °F 76% 29.27 in 10.0 mi East 6.9 mph - N/A   Overcast
9:16 AM 41.0 °F 34.7 °F 33.8 °F 76% 29.26 in 10.0 mi East 10.4 mph 16.1 mph N/A   Overcast
9:36 AM 41.0 °F 35.2 °F 33.8 °F 76% 29.25 in 10.0 mi East 9.2 mph - N/A   Overcast
9:56 AM 41.0 °F 35.8 °F 33.8 °F 76% 29.24 in 10.0 mi East 8.1 mph - N/A   Overcast
10:16 AM 41.0 °F 36.4 °F 33.8 °F 76% 29.23 in 10.0 mi East 6.9 mph - N/A   Overcast
10:36 AM 41.0 °F 38.0 °F 33.8 °F 76% 29.22 in 10.0 mi East 4.6 mph - N/A   Overcast
10:56 AM 41.0 °F 37.1 °F 33.8 °F 76% 29.21 in 10.0 mi ENE 5.8 mph - N/A   Overcast
11:16 AM 42.8 °F 37.0 °F 32.0 °F 66% 29.20 in 10.0 mi ENE 10.4 mph - N/A   Overcast
11:36 AM 41.0 °F 33.9 °F 33.8 °F 76% 29.19 in 10.0 mi ESE 12.7 mph 19.6 mph N/A   Overcast
11:56 AM 39.2 °F 35.0 °F 33.8 °F 81% 29.18 in 10.0 mi East 5.8 mph - N/A   Overcast
12:16 PM 41.0 °F 35.8 °F 33.8 °F 76% 29.17 in 10.0 mi East 8.1 mph 16.1 mph N/A   Overcast
12:36 PM 41.0 °F 37.1 °F 33.8 °F 76% 29.16 in 10.0 mi ESE 5.8 mph - N/A   Overcast
12:56 PM 42.8 °F 37.0 °F 33.8 °F 70% 29.15 in 10.0 mi ESE 10.4 mph 17.3 mph N/A   Overcast
1:16 PM 41.0 °F 38.0 °F 33.8 °F 76% 29.14 in 10.0 mi East 4.6 mph - N/A   Overcast
1:36 PM 41.0 °F 36.4 °F 33.8 °F 76% 29.13 in 10.0 mi East 6.9 mph 17.3 mph N/A   Overcast
1:56 PM 42.8 °F - 33.8 °F 70% 29.12 in 10.0 mi Calm Calm - N/A   Overcast
2:16 PM 41.0 °F 37.1 °F 33.8 °F 76% 29.12 in 10.0 mi NE 5.8 mph - N/A   Overcast
2:36 PM 41.0 °F 37.1 °F 33.8 °F 76% 29.12 in 10.0 mi ENE 5.8 mph 16.1 mph N/A   Overcast
2:56 PM 41.0 °F 39.0 °F 33.8 °F 76% 29.11 in 10.0 mi ENE 3.5 mph - N/A   Overcast
3:16 PM 39.2 °F 35.0 °F 33.8 °F 81% 29.10 in 10.0 mi North 5.8 mph - N/A   Overcast
3:36 PM 39.2 °F - 33.8 °F 81% 29.10 in 10.0 mi Calm Calm - N/A   Overcast
3:56 PM 37.4 °F 32.8 °F 33.8 °F 87% 29.10 in 10.0 mi NW 5.8 mph - N/A   Overcast
4:16 PM 37.4 °F 34.9 °F 33.8 °F 87% 29.10 in 10.0 mi WNW 3.5 mph - N/A   Overcast
4:36 PM 37.4 °F - 35.6 °F 93% 29.09 in 10.0 mi Calm Calm - N/A   Overcast
4:56 PM 37.4 °F 30.8 °F 33.8 °F 87% 29.08 in 10.0 mi NNW 9.2 mph - N/A   Overcast
5:16 PM 37.4 °F 30.3 °F 33.8 °F 87% 29.08 in 10.0 mi NNW 10.4 mph - N/A   Overcast
5:36 PM 37.4 °F 29.8 °F 35.6 °F 93% 29.08 in 10.0 mi NNW 11.5 mph - N/A   Overcast
5:56 PM 37.4 °F 29.8 °F 33.8 °F 87% 29.07 in 10.0 mi NNW 11.5 mph - N/A   Overcast
6:16 PM 37.4 °F 30.3 °F 33.8 °F 87% 29.07 in 10.0 mi NNW 10.4 mph - N/A   Overcast
6:36 PM 37.4 °F 31.4 °F 33.8 °F 87% 29.08 in 10.0 mi NW 8.1 mph - N/A   Overcast
6:56 PM 37.4 °F 30.8 °F 33.8 °F 87% 29.08 in 10.0 mi NNW 9.2 mph - N/A   Overcast
7:16 PM 37.4 °F 30.8 °F 35.6 °F 93% 29.08 in 10.0 mi NNW 9.2 mph - N/A   Overcast
7:36 PM 35.6 °F 28.0 °F 33.8 °F 93% 29.08 in 10.0 mi NW 10.4 mph - N/A   Overcast
7:56 PM 35.6 °F 28.0 °F 33.8 °F 93% 29.08 in 10.0 mi NNW 10.4 mph - N/A   Overcast
8:16 PM 35.6 °F 27.5 °F 33.8 °F 93% 29.08 in 10.0 mi NW 11.5 mph - N/A   Overcast
8:36 PM 35.6 °F 27.1 °F 33.8 °F 93% 29.08 in 10.0 mi NNW 12.7 mph 18.4 mph N/A   Overcast
8:56 PM 35.6 °F 26.6 °F 33.8 °F 93% 29.08 in 10.0 mi NNW 13.8 mph - N/A   Overcast
9:16 PM 35.6 °F 26.6 °F 32.0 °F 87% 29.08 in 10.0 mi NNW 13.8 mph - N/A   Overcast
9:36 PM 35.6 °F 25.9 °F 33.8 °F 93% 29.08 in 10.0 mi NNW 16.1 mph - N/A   Overcast
9:56 PM 35.6 °F 26.2 °F 33.8 °F 93% 29.08 in 10.0 mi NNW 15.0 mph 20.7 mph N/A   Overcast
10:16 PM 35.6 °F 27.1 °F 32.0 °F 87% 29.08 in 10.0 mi NW 12.7 mph - N/A   Overcast
10:36 PM 35.6 °F 27.5 °F 32.0 °F 87% 29.09 in 10.0 mi NNW 11.5 mph - N/A   Overcast
10:56 PM 33.8 °F 25.3 °F 30.2 °F 87% 29.09 in 8.0 mi NW 11.5 mph - N/A   Overcast
11:16 PM 33.8 °F 24.8 °F 30.2 °F 87% 29.09 in 8.0 mi NNW 12.7 mph - N/A   Overcast
11:36 PM 33.8 °F 25.8 °F 30.2 °F 87% 29.09 in 5.0 mi NNW 10.4 mph - N/A   Overcast
11:56 PM 33.8 °F 24.8 °F 30.2 °F 87% 29.09 in 5.0 mi NW 12.7 mph - N/A   Overcast